When you browse on this site, cookies collect data to enhance your experience and personalize the content and advertising you see.
Visit our Privacy Policy to learn more. By continuing to use the site, you agree to this use of cookies and data.
  • In Portugal
  • List of Countries
  • For 7 days
  • Water Temperature
  • Satellite Maps
  • Weather Map
  • Weather Widgets
  • user-avatar
    Login

    Hourly Weather Nara

    Today, 18 June, Tuesday

    Time Temperature Precipitation Wind Pressure Humidity
    00:00 +20°C° 0 mm 1 mps 729 mmHg 64%
    01:00 +19°C° 0 mm 1 mps 729 mmHg 64%
    02:00 +19°C° 0 mm 1 mps 729 mmHg 64%
    03:00 +19°C° 0 mm 1 mps 729 mmHg 64%
    04:00 +19°C° 0 mm 1 mps 729 mmHg 63%
    05:00 +19°C° 0 mm 1 mps 729 mmHg 62%
    06:00 +20°C° 0 mm 1 mps 729 mmHg 61%
    07:00 +22°C° 0 mm 1 mps 729 mmHg 55%
    08:00 +22°C° 0 mm 0 mps 729 mmHg 50%
    09:00 +24°C° 0 mm 0 mps 729 mmHg 45%
    10:00 +26°C° 0 mm 1 mps 729 mmHg 44%
    11:00 +27°C° 0 mm 2 mps 729 mmHg 43%
    12:00 +27°C° 0 mm 2 mps 729 mmHg 42%
    13:00 +27°C° 0 mm 2 mps 729 mmHg 44%
    14:00 +26°C° 0 mm 3 mps 728 mmHg 46%
    15:00 +26°C° 0 mm 3 mps 728 mmHg 48%
    16:00 +25°C° 0 mm 3 mps 728 mmHg 52%
    17:00 +24°C° 0 mm 2 mps 728 mmHg 56%
    18:00 +24°C° 0 mm 2 mps 728 mmHg 60%
    19:00 +23°C° 0 mm 2 mps 728 mmHg 61%
    20:00 +21°C° 0 mm 2 mps 728 mmHg 63%
    21:00 +20°C° 0 mm 2 mps 728 mmHg 64%
    22:00 +20°C° 0 mm 2 mps 728 mmHg 67%
    23:00 +21°C° 0 mm 1 mps 728 mmHg 69%

    Tomorrow, 19 June, Wednesday

    Time Temperature Precipitation Wind Pressure Humidity
    00:00 +20°C° 0 mm 1 mps 727 mmHg 72%
    01:00 +20°C° 0.1 mm 1 mps 727 mmHg 73%
    02:00 +20°C° 0.1 mm 1 mps 727 mmHg 75%
    03:00 +20°C° 0.1 mm 1 mps 727 mmHg 76%
    04:00 +20°C° 0.4 mm 1 mps 727 mmHg 77%
    05:00 +20°C° 0.4 mm 1 mps 727 mmHg 78%
    06:00 +20°C° 0.4 mm 1 mps 727 mmHg 79%
    07:00 +22°C° 0.1 mm 1 mps 727 mmHg 76%
    08:00 +23°C° 0.1 mm 1 mps 727 mmHg 72%
    09:00 +24°C° 0.1 mm 1 mps 727 mmHg 69%
    10:00 +25°C° 0.2 mm 1 mps 726 mmHg 66%
    11:00 +26°C° 0.2 mm 2 mps 726 mmHg 62%
    12:00 +27°C° 0.2 mm 3 mps 726 mmHg 59%
    13:00 +27°C° 0.5 mm 3 mps 726 mmHg 60%
    14:00 +27°C° 0.5 mm 3 mps 725 mmHg 62%
    15:00 +27°C° 0.5 mm 3 mps 725 mmHg 63%
    16:00 +26°C° 0.3 mm 3 mps 725 mmHg 65%
    17:00 +25°C° 0.3 mm 3 mps 725 mmHg 66%
    18:00 +25°C° 0.3 mm 2 mps 725 mmHg 68%
    19:00 +24°C° 0.1 mm 2 mps 725 mmHg 71%
    20:00 +23°C° 0.1 mm 2 mps 725 mmHg 74%
    21:00 +22°C° 0.1 mm 1 mps 725 mmHg 77%
    22:00 +21°C° 0 mm 1 mps 725 mmHg 78%
    23:00 +21°C° 0 mm 1 mps 725 mmHg 79%

    Day after tomorrow, 20 June, Thursday

    Time Temperature Precipitation Wind Pressure Humidity
    00:00 +19°C° 0 mm 0 mps 725 mmHg 80%
    01:00 +19°C° 0 mm 0 mps 724 mmHg 81%
    02:00 +18°C° 0 mm 0 mps 724 mmHg 82%
    03:00 +18°C° 0 mm 0 mps 724 mmHg 82%
    04:00 +18°C° 0 mm 0 mps 724 mmHg 82%
    05:00 +19°C° 0 mm 0 mps 724 mmHg 81%
    06:00 +19°C° 0 mm 0 mps 724 mmHg 80%
    07:00 +23°C° 0 mm 1 mps 725 mmHg 72%
    08:00 +25°C° 0 mm 1 mps 725 mmHg 64%
    09:00 +27°C° 0 mm 1 mps 725 mmHg 56%
    10:00 +28°C° 0 mm 1 mps 725 mmHg 52%
    11:00 +29°C° 0 mm 2 mps 725 mmHg 48%
    12:00 +30°C° 0 mm 2 mps 725 mmHg 44%
    13:00 +30°C° 0 mm 2 mps 725 mmHg 43%
    14:00 +30°C° 0 mm 2 mps 725 mmHg 42%
    15:00 +30°C° 0 mm 3 mps 724 mmHg 41%
    16:00 +29°C° 0 mm 3 mps 724 mmHg 45%
    17:00 +28°C° 0 mm 3 mps 725 mmHg 50%
    18:00 +27°C° 0 mm 3 mps 725 mmHg 55%
    19:00 +26°C° 0 mm 3 mps 725 mmHg 61%
    20:00 +24°C° 0 mm 3 mps 725 mmHg 67%
    21:00 +23°C° 0 mm 2 mps 726 mmHg 73%
    22:00 +23°C° 0 mm 2 mps 726 mmHg 74%
    23:00 +21°C° 0 mm 2 mps 726 mmHg 75%

    21 June, Friday

    Time Temperature Precipitation Wind Pressure Humidity
    00:00 +22°C° 0 mm 1 mps 726 mmHg 76%
    01:00 +22°C° 0 mm 1 mps 725 mmHg 75%
    02:00 +21°C° 0 mm 1 mps 725 mmHg 74%
    03:00 +21°C° 0 mm 1 mps 725 mmHg 73%
    04:00 +21°C° 0 mm 1 mps 725 mmHg 72%
    05:00 +22°C° 0 mm 1 mps 725 mmHg 71%
    06:00 +20°C° 0 mm 0 mps 725 mmHg 70%
    07:00 +22°C° 0 mm 0 mps 726 mmHg 64%
    08:00 +24°C° 0 mm 0 mps 726 mmHg 57%
    09:00 +26°C° 0 mm 0 mps 726 mmHg 51%
    10:00 +29°C° 0 mm 1 mps 726 mmHg 49%
    11:00 +29°C° 0 mm 2 mps 726 mmHg 47%
    12:00 +30°C° 0 mm 2 mps 726 mmHg 45%
    13:00 +29°C° 0.6 mm 3 mps 726 mmHg 51%
    14:00 +29°C° 0.6 mm 3 mps 725 mmHg 56%
    15:00 +28°C° 0.6 mm 3 mps 725 mmHg 62%
    16:00 +27°C° 0.5 mm 3 mps 725 mmHg 64%
    17:00 +26°C° 0.5 mm 3 mps 725 mmHg 66%
    18:00 +25°C° 0.5 mm 3 mps 725 mmHg 69%
    19:00 +24°C° 0.1 mm 3 mps 725 mmHg 72%
    20:00 +23°C° 0.1 mm 2 mps 725 mmHg 74%
    21:00 +23°C° 0.1 mm 2 mps 725 mmHg 77%
    22:00 +21°C° 0 mm 2 mps 725 mmHg 78%
    23:00 +21°C° 0 mm 2 mps 724 mmHg 78%

    22 June, Saturday

    Time Temperature Precipitation Wind Pressure Humidity
    00:00 +20°C° 0 mm 2 mps 724 mmHg 79%
    01:00 +20°C° 0 mm 2 mps 724 mmHg 79%
    02:00 +21°C° 0 mm 1 mps 724 mmHg 79%
    03:00 +21°C° 0 mm 1 mps 723 mmHg 80%
    04:00 +21°C° 0.1 mm 1 mps 723 mmHg 80%
    05:00 +21°C° 0.1 mm 1 mps 723 mmHg 80%
    06:00 +21°C° 0.1 mm 1 mps 722 mmHg 80%
    07:00 +23°C° 0 mm 1 mps 722 mmHg 74%
    08:00 +24°C° 0 mm 1 mps 722 mmHg 67%
    09:00 +26°C° 0 mm 1 mps 723 mmHg 61%
    10:00 +26°C° 0.3 mm 1 mps 722 mmHg 60%
    11:00 +27°C° 0.3 mm 1 mps 722 mmHg 58%
    12:00 +28°C° 0.3 mm 2 mps 721 mmHg 56%
    13:00 +28°C° 0.4 mm 2 mps 721 mmHg 57%
    14:00 +28°C° 0.4 mm 2 mps 721 mmHg 57%
    15:00 +28°C° 0.4 mm 2 mps 721 mmHg 58%
    16:00 +27°C° 0.5 mm 2 mps 721 mmHg 62%
    17:00 +26°C° 0.5 mm 2 mps 721 mmHg 65%
    18:00 +25°C° 0.5 mm 2 mps 721 mmHg 69%
    19:00 +24°C° 1.3 mm 2 mps 721 mmHg 72%
    20:00 +23°C° 1.3 mm 2 mps 722 mmHg 74%
    21:00 +21°C° 1.3 mm 2 mps 722 mmHg 77%
    22:00 +22°C° 1 mm 1 mps 722 mmHg 77%
    23:00 +22°C° 1 mm 1 mps 722 mmHg 78%

    23 June, Sunday

    Time Temperature Precipitation Wind Pressure Humidity
    00:00 +22°C° 1 mm 1 mps 722 mmHg 78%
    01:00 +19°C° 0 mm 0 mps 723 mmHg 79%
    02:00 +19°C° 0 mm 0 mps 723 mmHg 79%
    03:00 +19°C° 0 mm 0 mps 723 mmHg 80%
    04:00 +19°C° 0 mm 0 mps 723 mmHg 80%
    05:00 +21°C° 0 mm 1 mps 723 mmHg 80%
    06:00 +21°C° 0 mm 1 mps 723 mmHg 80%
    07:00 +22°C° 0.2 mm 1 mps 724 mmHg 75%
    08:00 +24°C° 0.2 mm 1 mps 724 mmHg 71%
    09:00 +25°C° 0.2 mm 1 mps 724 mmHg 66%
    10:00 +25°C° 0.5 mm 2 mps 724 mmHg 66%
    11:00 +26°C° 0.5 mm 2 mps 724 mmHg 65%
    12:00 +26°C° 0.5 mm 2 mps 724 mmHg 65%
    13:00 +26°C° 0.4 mm 2 mps 724 mmHg 63%
    14:00 +26°C° 0.4 mm 2 mps 724 mmHg 61%
    15:00 +27°C° 0.4 mm 2 mps 724 mmHg 59%
    16:00 +26°C° 0.2 mm 2 mps 724 mmHg 62%
    17:00 +26°C° 0.2 mm 2 mps 724 mmHg 64%
    18:00 +25°C° 0.2 mm 1 mps 724 mmHg 67%
    19:00 +24°C° 0 mm 1 mps 725 mmHg 69%
    20:00 +23°C° 0 mm 1 mps 725 mmHg 72%
    21:00 +22°C° 0 mm 1 mps 725 mmHg 74%
    22:00 +22°C° 0 mm 1 mps 725 mmHg 75%
    23:00 +21°C° 0 mm 1 mps 725 mmHg 76%
    Show more